QPF
0.02 0.04 0.04 0.03 0.02 0.02 0.03 0.04 0.04 0.04 0.04 0.03 0.03 0.04 0.03 0.03 0.03 0.04 0.03 0.05 0.07 0.09 0.09 0.07 0.06 0.06 0.06 0.06 0.04 0.05 0.05 0.05 0.05 0.05 0.06 0.08 0.10 0.14
0.05 0.04 0.03 0.02 0.02 0.02 0.02 0.03 0.04 0.04 0.04 0.03 0.03 0.03 0.04 0.04 0.05 0.05 0.05 0.06 0.06 0.05 0.05 0.05 0.05 0.05 0.05 0.06 0.05 0.05 0.06 0.07 0.07 0.07 0.08 0.09 0.10 0.10
0.04 0.04 0.04 0.03 0.02 0.02 0.02 0.03 0.04 0.04 0.03 0.03 0.03 0.03 0.02 0.03 0.05 0.05 0.05 0.05 0.05 0.04 0.04 0.03 0.03 0.03 0.03 0.03 0.03 0.03 0.04 0.05 0.06 0.07 0.08 0.08 0.08 0.08
0.04 0.05 0.05 0.04 0.03 0.03 0.03 0.02 0.03 0.02 0.02 0.03 0.04 0.04 0.03 0.04 0.05 0.05 0.05 0.06 0.06 0.05 0.05 0.04 0.03 0.03 0.03 0.03 0.03 0.02 0.02 0.03 0.03 0.03 0.04 0.04 0.05 0.06
0.03 0.04 0.04 0.05 0.04 0.03 0.02 0.02 0.02 0.02 0.03 0.02 0.02 0.02 0.03 0.03 0.05 0.05 0.05 0.05 0.05 0.06 0.05 0.04 0.04 0.03 0.03 0.03 0.02 0.02 0.02 0.02 0.02 0.02 0.02 0.03 0.04 0.06
0.04 0.03 0.04 0.04 0.03 0.03 0.03 0.03 0.04 0.03 0.02 0.02 0.03 0.04 0.04 0.04 0.04 0.04 0.03 0.02 0.02 0.03 0.03 0.03 0.04 0.04 0.04 0.04 0.04 0.03 0.03 0.02 0.02 0.02 0.03 0.03 0.04 0.05
0.05 0.04 0.03 0.03 0.04 0.04 0.04 0.03 0.04 0.04 0.04 0.03 0.04 0.05 0.05 0.05 0.05 0.05 0.04 0.03 0.02 0.02 0.02 0.03 0.04 0.06 0.07 0.08 0.08 0.06 0.06 0.04 0.02 0.02 0.03 0.04 0.05 0.05
0.04 0.03 0.02 0.03 0.03 0.04 0.05 0.04 0.04 0.05 0.04 0.03 0.03 0.04 0.04 0.05 0.06 0.06 0.06 0.05 0.03 0.03 0.03 0.04 0.06 0.08 0.09 0.08 0.08 0.07 0.06 0.04 0.03 0.03 0.04 0.04 0.05 0.06
0.03 0.02 0.02 0.03 0.03 0.05 0.06 0.07 0.07 0.06 0.06 0.05 0.03 0.02 0.02 0.02 0.04 0.04 0.04 0.04 0.04 0.04 0.04 0.06 0.09 0.08 0.08 0.08 0.05 0.04 0.03 0.03 0.04 0.05 0.05 0.05 0.05 0.06
0.02 0.02 0.03 0.03 0.03 0.06 0.07 0.06 0.06 0.05 0.05 0.04 0.03 0.03 0.03 0.04 0.05 0.04 0.04 0.05 0.06 0.06 0.06 0.07 0.08 0.06 0.04 0.03 0.02 0.02 0.02 0.03 0.03 0.04 0.05 0.05 0.05 0.05
0.02 0.02 0.03 0.02 0.04 0.05 0.05 0.04 0.03 0.02 0.03 0.03 0.02 0.03 0.03 0.05 0.06 0.07 0.07 0.06 0.06 0.06 0.07 0.08 0.07 0.06 0.05 0.03 0.03 0.03 0.03 0.03 0.03 0.03 0.02 0.02 0.02 0.02
0.03 0.02 0.02 0.02 0.04 0.03 0.02 0.02 0.02 0.02 0.03 0.02 0.02 0.02 0.03 0.03 0.05 0.06 0.05 0.06 0.06 0.06 0.06 0.07 0.08 0.08 0.07 0.06 0.05 0.04 0.04 0.03 0.02 0.02 0.01 0.01 0.01 0.01
0.03 0.03 0.03 0.04 0.04 0.03 0.03 0.02 0.02 0.03 0.03 0.03 0.02 0.02 0.01 0.02 0.03 0.03 0.04 0.04 0.04 0.05 0.05 0.06 0.07 0.07 0.06 0.05 0.05 0.05 0.04 0.04 0.03 0.02 0.02 0.01 0.01 0.01
0.03 0.03 0.02 0.03 0.02 0.02 0.01 0.01 0.02 0.02 0.02 0.03 0.02 0.01 0.01 0.02 0.03 0.04 0.03 0.03 0.03 0.04 0.05 0.05 0.05 0.05 0.05 0.05 0.04 0.04 0.03 0.03 0.02 0.02 0.01 0.01 0.02 0.02
0.01 0.01 0.01 0.01 0.01 0.01 0.02 0.02 0.02 0.02 0.02 0.01 0.01 0.01 0.02 0.03 0.03 0.02 0.02 0.02 0.03 0.03 0.03 0.03 0.03 0.03 0.02 0.02 0.02 0.01 0.01 0.01 0.01 0.02 0.02 0.01 0.02 0.02
0.01 0.01 0.01 0.01 0.01 0.01 0.01 0.01 0.01 0.01 0.02 0.01 0.01 0.01 0.01 0.02 0.02 0.02 0.02 0.01 0.01 0.01 0.01 0.02 0.02 0.01 0.01 0.01 0.01 0.00 0.00 0.00 0.01 0.01 0.02 0.02 0.02 0.03
0.01 0.01 0.01 0.01 0.01 0.01 0.01 0.00 0.01 0.01 0.01 0.01 0.01 0.01 0.01 0.02 0.02 0.02 0.01 0.01 0.01 0.00 0.00 0.01 0.01 0.01 0.01 0.01 0.00 0.00 0.00 0.00 0.01 0.01 0.02 0.03 0.03 0.03
0.02 0.01 0.01 0.01 0.01 0.01 0.01 0.01 0.01 0.01 0.01 0.01 0.01 0.01 0.01 0.02 0.02 0.02 0.02 0.01 0.01 0.01 0.01 0.01 0.01 0.02 0.01 0.01 0.00 0.00 0.00 0.00 0.01 0.01 0.01 0.02 0.04 0.05
0.02 0.01 0.01 0.01 0.01 0.01 0.01 0.01 0.02 0.03 0.03 0.02 0.02 0.02 0.02 0.03 0.03 0.02 0.02 0.02 0.01 0.01 0.01 0.01 0.02 0.02 0.01 0.01 0.01 0.01 0.01 0.01 0.01 0.01 0.02 0.03 0.03 0.04
0.02 0.01 0.01 0.01 0.01 0.01 0.01 0.01 0.02 0.02 0.02 0.02 0.02 0.02 0.02 0.02 0.03 0.02 0.02 0.02 0.01 0.01 0.01 0.01 0.01 0.01 0.01 0.02 0.02 0.02 0.02 0.02 0.02 0.02 0.02 0.03 0.04 0.04
0.01 0.01 0.01 0.02 0.02 0.02 0.01 0.01 0.01 0.01 0.01 0.01 0.01 0.01 0.01 0.01 0.01 0.01 0.01 0.02 0.01 0.01 0.01 0.01 0.01 0.02 0.02 0.02 0.02 0.02 0.02 0.03 0.04 0.04 0.03 0.04 0.04 0.05
0.02 0.02 0.02 0.03 0.02 0.03 0.02 0.01 0.01 0.01 0.01 0.01 0.01 0.02 0.02 0.02 0.01 0.01 0.01 0.01 0.01 0.01 0.01 0.01 0.01 0.02 0.03 0.03 0.02 0.02 0.03 0.04 0.04 0.04 0.03 0.03 0.03 0.03
0.04 0.03 0.03 0.03 0.02 0.02 0.02 0.01 0.01 0.01 0.01 0.01 0.01 0.01 0.01 0.01 0.01 0.01 0.01 0.01 0.01 0.01 0.01 0.01 0.02 0.02 0.03 0.03 0.03 0.03 0.03 0.04 0.03 0.03 0.03 0.03 0.03 0.03
MSLP
1013.17 1013.66 1014.23 1014.81 1015.32 1015.71 1015.95 1016.02 1015.94 1015.75 1015.49 1015.21 1014.95 1014.74 1014.58 1014.47 1014.39 1014.35 1014.33 1014.35 1014.39 1014.48 1014.62 1014.78 1014.97 1015.15 1015.31 1015.40 1015.41 1015.35 1015.21 1015.01 1014.77 1014.52 1014.27 1014.04 1013.83 1013.61
1012.58 1013.07 1013.62 1014.18 1014.69 1015.09 1015.36 1015.47 1015.46 1015.35 1015.17 1014.96 1014.76 1014.58 1014.42 1014.29 1014.17 1014.08 1014.00 1013.95 1013.95 1014.00 1014.10 1014.26 1014.46 1014.67 1014.86 1015.00 1015.08 1015.07 1014.99 1014.84 1014.64 1014.41 1014.18 1013.94 1013.71 1013.47
1012.29 1012.73 1013.23 1013.73 1014.19 1014.55 1014.81 1014.94 1014.97 1014.92 1014.82 1014.69 1014.56 1014.43 1014.29 1014.16 1014.03 1013.89 1013.76 1013.65 1013.58 1013.58 1013.64 1013.78 1013.96 1014.18 1014.40 1014.58 1014.71 1014.75 1014.72 1014.62 1014.47 1014.27 1014.06 1013.83 1013.59 1013.33
1012.29 1012.68 1013.10 1013.51 1013.87 1014.16 1014.37 1014.48 1014.53 1014.53 1014.49 1014.44 1014.38 1014.31 1014.23 1014.11 1013.97 1013.81 1013.63 1013.47 1013.35 1013.28 1013.30 1013.39 1013.55 1013.76 1013.98 1014.19 1014.34 1014.43 1014.44 1014.38 1014.26 1014.10 1013.90 1013.69 1013.45 1013.19
1012.53 1012.85 1013.18 1013.48 1013.73 1013.92 1014.05 1014.13 1014.17 1014.19 1014.21 1014.23 1014.24 1014.24 1014.20 1014.12 1013.99 1013.82 1013.62 1013.41 1013.23 1013.11 1013.07 1013.12 1013.25 1013.43 1013.64 1013.84 1014.01 1014.12 1014.16 1014.13 1014.03 1013.89 1013.72 1013.51 1013.29 1013.04
1012.90 1013.16 1013.39 1013.57 1013.71 1013.79 1013.83 1013.85 1013.87 1013.90 1013.96 1014.03 1014.11 1014.16 1014.18 1014.14 1014.03 1013.85 1013.63 1013.40 1013.18 1013.02 1012.94 1012.94 1013.02 1013.17 1013.36 1013.55 1013.71 1013.83 1013.88 1013.86 1013.79 1013.66 1013.50 1013.31 1013.09 1012.85
1013.28 1013.48 1013.62 1013.71 1013.73 1013.71 1013.66 1013.62 1013.61 1013.63 1013.70 1013.81 1013.93 1014.03 1014.09 1014.08 1013.99 1013.83 1013.61 1013.36 1013.13 1012.93 1012.82 1012.78 1012.83 1012.95 1013.11 1013.27 1013.43 1013.53 1013.59 1013.58 1013.51 1013.40 1013.25 1013.08 1012.87 1012.64
1013.57 1013.72 1013.79 1013.79 1013.72 1013.62 1013.50 1013.40 1013.35 1013.35 1013.42 1013.53 1013.67 1013.79 1013.87 1013.89 1013.82 1013.67 1013.46 1013.22 1012.98 1012.78 1012.64 1012.59 1012.61 1012.70 1012.83 1012.98 1013.11 1013.21 1013.27 1013.26 1013.21 1013.11 1012.98 1012.82 1012.63 1012.41
1013.71 1013.83 1013.85 1013.79 1013.66 1013.49 1013.31 1013.16 1013.07 1013.05 1013.10 1013.20 1013.33 1013.45 1013.53 1013.55 1013.49 1013.36 1013.16 1012.93 1012.71 1012.51 1012.37 1012.31 1012.32 1012.39 1012.51 1012.64 1012.76 1012.86 1012.91 1012.92 1012.88 1012.80 1012.69 1012.55 1012.38 1012.17
1013.71 1013.80 1013.79 1013.70 1013.53 1013.32 1013.11 1012.94 1012.81 1012.75 1012.77 1012.83 1012.93 1013.03 1013.09 1013.10 1013.04 1012.91 1012.73 1012.52 1012.31 1012.13 1012.01 1011.95 1011.96 1012.03 1012.13 1012.26 1012.37 1012.47 1012.53 1012.55 1012.53 1012.48 1012.39 1012.28 1012.14 1011.95
1013.63 1013.70 1013.68 1013.57 1013.39 1013.17 1012.95 1012.76 1012.61 1012.52 1012.49 1012.51 1012.56 1012.61 1012.63 1012.61 1012.54 1012.41 1012.24 1012.05 1011.86 1011.71 1011.60 1011.55 1011.57 1011.63 1011.73 1011.85 1011.97 1012.07 1012.14 1012.18 1012.18 1012.16 1012.11 1012.03 1011.92 1011.76
1013.55 1013.61 1013.58 1013.47 1013.30 1013.09 1012.88 1012.68 1012.51 1012.39 1012.32 1012.29 1012.28 1012.27 1012.25 1012.19 1012.09 1011.96 1011.79 1011.62 1011.45 1011.32 1011.23 1011.19 1011.21 1011.27 1011.36 1011.47 1011.58 1011.68 1011.76 1011.82 1011.85 1011.86 1011.85 1011.81 1011.73 1011.61
1013.53 1013.57 1013.55 1013.45 1013.31 1013.12 1012.92 1012.73 1012.55 1012.41 1012.30 1012.22 1012.15 1012.09 1012.02 1011.92 1011.80 1011.65 1011.49 1011.32 1011.17 1011.05 1010.97 1010.93 1010.94 1010.99 1011.07 1011.16 1011.25 1011.34 1011.42 1011.49 1011.54 1011.58 1011.59 1011.59 1011.55 1011.47
1013.60 1013.63 1013.61 1013.54 1013.42 1013.26 1013.09 1012.91 1012.74 1012.58 1012.44 1012.32 1012.21 1012.10 1011.98 1011.85 1011.70 1011.54 1011.38 1011.22 1011.07 1010.95 1010.87 1010.82 1010.81 1010.83 1010.87 1010.93 1010.99 1011.06 1011.13 1011.19 1011.25 1011.30 1011.34 1011.36 1011.36 1011.33
1013.75 1013.77 1013.75 1013.70 1013.61 1013.49 1013.35 1013.19 1013.03 1012.87 1012.71 1012.57 1012.42 1012.28 1012.13 1011.98 1011.82 1011.65 1011.48 1011.31 1011.17 1011.04 1010.94 1010.86 1010.81 1010.79 1010.78 1010.79 1010.81 1010.84 1010.87 1010.91 1010.96 1011.01 1011.06 1011.10 1011.13 1011.14
1013.93 1013.94 1013.92 1013.89 1013.83 1013.74 1013.63 1013.50 1013.36 1013.21 1013.05 1012.90 1012.74 1012.58 1012.43 1012.26 1012.09 1011.92 1011.75 1011.59 1011.43 1011.28 1011.15 1011.03 1010.93 1010.85 1010.79 1010.73 1010.69 1010.67 1010.66 1010.66 1010.68 1010.71 1010.76 1010.81 1010.85 1010.89
1014.08 1014.08 1014.07 1014.05 1014.02 1013.96 1013.88 1013.78 1013.66 1013.53 1013.39 1013.24 1013.09 1012.94 1012.78 1012.62 1012.46 1012.30 1012.13 1011.95 1011.78 1011.61 1011.44 1011.28 1011.13 1010.99 1010.85 1010.73 1010.62 1010.54 1010.47 1010.43 1010.41 1010.42 1010.44 1010.49 1010.55 1010.61
1014.15 1014.15 1014.15 1014.15 1014.14 1014.10 1014.05 1013.98 1013.88 1013.78 1013.66 1013.54 1013.41 1013.27 1013.13 1012.99 1012.84 1012.69 1012.52 1012.35 1012.16 1011.97 1011.77 1011.56 1011.36 1011.15 1010.95 1010.77 1010.60 1010.45 1010.33 1010.24 1010.18 1010.15 1010.16 1010.20 1010.26 1010.34
1014.14 1014.15 1014.16 1014.17 1014.17 1014.16 1014.13 1014.08 1014.02 1013.94 1013.85 1013.75 1013.65 1013.54 1013.43 1013.31 1013.17 1013.03 1012.87 1012.69 1012.50 1012.29 1012.06 1011.82 1011.57 1011.32 1011.07 1010.84 1010.62 1010.42 1010.25 1010.12 1010.03 1009.97 1009.96 1009.99 1010.05 1010.15
1014.07 1014.08 1014.10 1014.12 1014.14 1014.14 1014.13 1014.11 1014.07 1014.02 1013.96 1013.89 1013.82 1013.73 1013.64 1013.54 1013.42 1013.29 1013.14 1012.96 1012.76 1012.54 1012.29 1012.03 1011.76 1011.48 1011.21 1010.94 1010.69 1010.46 1010.26 1010.11 1009.99 1009.91 1009.89 1009.91 1009.98 1010.10
1013.98 1014.00 1014.02 1014.05 1014.07 1014.08 1014.09 1014.08 1014.07 1014.04 1014.00 1013.96 1013.91 1013.85 1013.77 1013.68 1013.58 1013.45 1013.30 1013.12 1012.92 1012.69 1012.45 1012.19 1011.91 1011.63 1011.35 1011.07 1010.82 1010.58 1010.38 1010.21 1010.08 1010.00 1009.98 1010.00 1010.08 1010.20
1013.90 1013.91 1013.94 1013.96 1013.99 1014.01 1014.02 1014.03 1014.03 1014.03 1014.01 1013.99 1013.95 1013.90 1013.84 1013.75 1013.64 1013.51 1013.36 1013.18 1012.98 1012.76 1012.52 1012.27 1012.01 1011.75 1011.49 1011.23 1010.99 1010.78 1010.58 1010.42 1010.30 1010.22 1010.20 1010.23 1010.31 1010.45
1013.82 1013.83 1013.85 1013.87 1013.89 1013.91 1013.94 1013.96 1013.98 1013.99 1014.00 1013.99 1013.96 1013.91 1013.84 1013.75 1013.63 1013.48 1013.32 1013.13 1012.93 1012.72 1012.50 1012.27 1012.05 1011.82 1011.60 1011.38 1011.18 1010.99 1010.83 1010.69 1010.58 1010.51 1010.50 1010.53 1010.62 1010.77
Thickness
5737 5735 5733 5732 5731 5729 5726 5723 5716 5710 5710 5713 5714 5716 5715 5714 5712 5711 5710 5709 5708 5706 5705 5704 5703 5701 5699 5697 5696 5694 5693 5691 5690 5688 5687 5685 5684 5683
5735 5732 5731 5729 5728 5726 5724 5722 5719 5713 5708 5710 5710 5711 5710 5708 5707 5705 5705 5703 5702 5701 5700 5698 5697 5695 5693 5692 5690 5688 5686 5685 5683 5682 5681 5679 5677 5676
5732 5730 5728 5727 5724 5723 5721 5718 5716 5712 5707 5706 5707 5706 5704 5702 5701 5699 5698 5697 5696 5695 5693 5692 5690 5688 5686 5685 5683 5681 5679 5678 5676 5675 5673 5672 5670 5669
5729 5727 5724 5723 5720 5719 5717 5714 5712 5710 5705 5702 5701 5700 5698 5697 5695 5693 5692 5691 5689 5688 5687 5685 5683 5681 5679 5677 5675 5674 5672 5670 5668 5667 5665 5664 5663 5661
5726 5724 5721 5719 5716 5714 5712 5710 5707 5706 5703 5699 5696 5695 5693 5691 5689 5687 5685 5683 5682 5680 5679 5677 5675 5673 5671 5669 5667 5666 5664 5662 5661 5659 5657 5656 5655 5653
5723 5721 5718 5716 5713 5711 5708 5705 5702 5699 5697 5694 5691 5688 5686 5684 5681 5678 5676 5675 5673 5673 5671 5669 5667 5665 5663 5662 5660 5658 5656 5654 5653 5651 5650 5648 5646 5645
5718 5717 5715 5713 5712 5709 5706 5701 5698 5694 5691 5688 5685 5682 5679 5677 5674 5672 5668 5666 5665 5664 5662 5661 5658 5656 5655 5654 5652 5650 5648 5647 5645 5643 5642 5640 5638 5636
5712 5711 5710 5709 5707 5705 5702 5699 5696 5691 5686 5683 5679 5676 5674 5672 5670 5667 5662 5658 5655 5657 5654 5652 5650 5648 5647 5646 5644 5642 5641 5639 5637 5635 5634 5632 5629 5628
5708 5705 5704 5703 5700 5698 5695 5693 5691 5689 5685 5681 5677 5674 5671 5669 5665 5661 5658 5654 5651 5651 5647 5644 5643 5640 5639 5638 5637 5635 5633 5631 5630 5627 5625 5623 5621 5619
5703 5701 5698 5696 5694 5691 5688 5685 5683 5682 5680 5677 5675 5673 5670 5667 5663 5660 5655 5650 5647 5644 5642 5637 5636 5633 5633 5631 5630 5628 5625 5623 5621 5619 5617 5615 5612 5610
5697 5695 5693 5690 5688 5685 5682 5678 5676 5674 5674 5672 5670 5668 5665 5663 5659 5654 5648 5643 5638 5636 5635 5632 5629 5626 5624 5623 5622 5620 5618 5616 5613 5611 5609 5607 5604 5601
5689 5688 5686 5684 5682 5679 5675 5672 5669 5667 5666 5664 5662 5660 5658 5656 5653 5649 5645 5638 5632 5629 5629 5625 5621 5617 5614 5615 5614 5612 5610 5607 5605 5603 5601 5598 5596 5592
5681 5680 5679 5677 5676 5673 5670 5667 5664 5662 5659 5656 5653 5651 5649 5647 5645 5643 5639 5635 5629 5625 5624 5620 5615 5611 5608 5605 5605 5604 5602 5599 5597 5594 5591 5589 5587 5584
5675 5673 5671 5669 5667 5665 5662 5660 5658 5654 5651 5648 5645 5642 5640 5638 5637 5635 5632 5629 5626 5622 5619 5615 5610 5606 5601 5597 5595 5595 5593 5591 5588 5586 5583 5581 5578 5576
5669 5666 5664 5661 5658 5656 5654 5652 5649 5645 5642 5639 5636 5634 5633 5631 5629 5625 5623 5620 5617 5614 5612 5608 5604 5600 5596 5592 5588 5586 5584 5582 5580 5577 5575 5572 5571 5569
5660 5658 5655 5652 5649 5647 5645 5643 5640 5637 5633 5630 5628 5626 5624 5622 5619 5616 5612 5610 5606 5603 5602 5600 5597 5593 5588 5585 5582 5578 5576 5574 5573 5570 5568 5565 5564 5562
5651 5647 5643 5640 5637 5635 5633 5631 5629 5627 5624 5621 5618 5616 5613 5611 5609 5606 5602 5599 5595 5592 5590 5589 5587 5584 5581 5578 5574 5572 5569 5567 5565 5563 5559 5557 5556 5555
5642 5637 5634 5632 5629 5626 5623 5621 5619 5617 5615 5612 5609 5606 5604 5601 5598 5596 5592 5589 5586 5583 5581 5579 5575 5572 5570 5570 5569 5566 5563 5560 5558 5556 5553 5550 5549 5549
5632 5629 5626 5623 5620 5618 5615 5613 5610 5608 5606 5603 5600 5597 5594 5591 5588 5586 5583 5580 5577 5574 5572 5569 5565 5562 5559 5559 5561 5561 5557 5554 5551 5548 5546 5544 5544 5544
5622 5620 5617 5615 5612 5609 5607 5604 5602 5599 5596 5593 5590 5587 5584 5582 5579 5576 5574 5571 5568 5566 5563 5560 5557 5555 5552 5552 5551 5552 5552 5548 5545 5543 5541 5539 5538 5538
5613 5610 5608 5606 5604 5601 5599 5595 5593 5590 5587 5584 5580 5578 5575 5572 5569 5567 5564 5562 5559 5557 5555 5553 5552 5550 5547 5544 5541 5542 5544 5543 5542 5538 5536 5531 5529 5527
5604 5602 5600 5598 5595 5593 5590 5587 5583 5580 5577 5574 5571 5568 5566 5563 5560 5558 5555 5553 5551 5549 5547 5545 5544 5541 5538 5535 5534 5535 5535 5535 5535 5533 5532 5529 5525 5523
5595 5593 5591 5589 5587 5583 5580 5577 5574 5571 5567 5564 5561 5559 5556 5553 5551 5549 5547 5544 5542 5541 5538 5536 5533 5531 5529 5528 5526 5526 5526 5526 5525 5524 5524 5524 5522 5521